This demonstration page uses our WeatherBlox Daily Observations layout. Learn more.

Left ArrowRight Arrow

39.01783, -85.05884

Hourly Observations for March 12, 2017

Temp ( °F °C ) Dew Point ( °F °C ) Humidity (%) Winds ( mph kmh ) Pressure ( in mb ) Visibility ( mi km ) Precip ( " mm )
12:52 am 00:52 Mostly Clear 26 -3.3 13 -10.6 57 57 N 8 13 30.42 1030 10 16 0.00 0.00
1:52 am 01:52 Mostly Cloudy 25 -3.9 12 -11.1 58 58 N 10 17 30.43 1030 10 16 0.00 0.00
3:52 am 03:52 Partly Cloudy 24 -4.4 12 -11.1 60 60 N 6 9 30.41 1030 10 16 0.00 0.00
4:52 am 04:52 Clear 23 -5 11 -11.7 60 60 N 8 13 30.40 1030 10 16 0.00 0.00
5:52 am 05:52 Clear 22 -5.6 12 -11.1 66 66 NNW 6 9 30.41 1030 10 16 0.00 0.00
6:52 am 06:52 Clear 21 -6.1 12 -11.1 68 68 NNW 6 9 30.42 1030 10 16 0.00 0.00
7:52 am 07:52 Clear 20 -6.7 12 -11.1 71 71 N 7 11 30.42 1030 10 16 0.00 0.00
8:52 am 08:52 Sunny 23 -5 12 -11.1 63 63 NNE 8 13 30.43 1030 10 16 0.00 0.00
9:52 am 09:52 Sunny 26 -3.3 12 -11.1 55 55 N 9 15 30.46 1032 10 16 0.00 0.00
10:52 am 10:52 Sunny 27 -2.8 12 -11.1 53 53 E 7 11 30.45 1031 10 16 0.00 0.00
11:52 am 11:52 Sunny 30 -1.1 12 -11.1 47 47 VRB 6 9 30.48 1032 10 16 0.00 0.00
12:52 pm 12:52 Mostly Sunny 33 0.6 13 -10.6 43 43 VRB 5 7 30.46 1031 10 16 0.00 0.00
1:52 pm 13:52 Mostly Sunny 34 1.1 13 -10.6 42 42 E 6 9 30.42 1030 10 16 0.00 0.00
2:52 pm 14:52 Mostly Cloudy 35 1.7 9 -12.8 34 34 ENE 6 9 30.41 1030 10 16 0.00 0.00
3:52 pm 15:52 Partly Cloudy 37 2.8 11 -11.7 34 34 NNW 8 13 30.41 1030 10 16 0.00 0.00
4:52 pm 16:52 Mostly Cloudy 37 2.8 10 -12.2 33 33 ENE 6 9 30.39 1029 10 16 0.00 0.00
5:52 pm 17:52 Mostly Cloudy 38 3.3 10 -12.2 31 31 ENE 6 9 30.37 1028 10 16 0.00 0.00
6:52 pm 18:52 Partly Cloudy 37 2.8 9 -12.8 31 31 N 5 7 30.36 1028 10 16 0.00 0.00
7:52 pm 19:52 Partly Cloudy 35 1.7 10 -12.2 35 35 ENE 8 13 30.35 1028 10 16 0.00 0.00
8:52 pm 20:52 Partly Cloudy 34 1.1 10 -12.2 37 37 NE 9 15 30.34 1027 10 16 0.00 0.00
9:52 pm 21:52 Mostly Cloudy 34 1.1 12 -11.1 40 40 E 8 13 30.33 1027 10 16 0.00 0.00
10:52 pm 22:52 Cloudy 33 0.6 14 -10 45 45 E 9 15 30.31 1026 10 16 0.00 0.00
11:52 pm 23:52 Cloudy 32 0 15 -9.4 50 50 E 13 20 30.29 1026 10 16 0.00 0.00

Powered by AerisWeather